Satellite: FIREBIRD FU3 Catalog number: 40377 Epoch time: 15085.82870519 Element set: 999 Inclination: 099.1258 deg RA of node: 104.1531 deg Eccentricity: 0.0164172 Arg of perigee: 162.4244 deg Mean anomaly: 198.2775 deg Mean motion: 15.05533544 rev/day Decay rate: 9.304e-05 rev/day^2 Epoch rev: 815 Checksum: 315
Satellite: FIREBIRD FU4 Catalog number: 40378 Epoch time: 15085.49541213 Element set: 999 Inclination: 099.1249 deg RA of node: 103.7610 deg Eccentricity: 0.0164510 Arg of perigee: 163.5800 deg Mean anomaly: 197.0953 deg Mean motion: 15.05551238 rev/day Decay rate: 9.083e-05 rev/day^2 Epoch rev: 810 Checksum: 299
Satellite: GRIFEX Catalog number: 40379 Epoch time: 15085.76892917 Element set: 999 Inclination: 099.1266 deg RA of node: 104.0721 deg Eccentricity: 0.0164383 Arg of perigee: 163.7129 deg Mean anomaly: 196.9439 deg Mean motion: 15.05240460 rev/day Decay rate: 7.530e-05 rev/day^2 Epoch rev: 814 Checksum: 324
Satellite: LAMBDA-SAT Catalog number: 40458 Epoch time: 15085.56489584 Element set: 999 Inclination: 051.6439 deg RA of node: 136.1902 deg Eccentricity: 0.0006756 Arg of perigee: 120.0675 deg Mean anomaly: 031.3299 deg Mean motion: 15.61954707 rev/day Decay rate: 1.63921e-03 rev/day^2 Epoch rev: 1314 Checksum: 321
/EX
participants (1)
-
Ray Hoad